Find Starlink 6321

NORAD ID: 57340 Int'l Des: 2023-099 Owner: SPXS Country: US Constellation: starlink operational
LEOCIRCULAR

实时位置

正在加载3D地球...

关于 Starlink 6321

正在加载描述...

即将过境

Passes for default location (London). Set your location on the main map for personalized predictions.

高度历史

Loading altitude history...

两行轨道根数

1 57340U 23099N 26123.56174140 -.00002453 00000-0 -79627-4 0 9995
2 57340 43.0061 302.9177 0002115 273.6240 86.4370 15.27582563154469
Epoch: May 3, 2026 • Age: 26 hours

当前状态

高度 494.0 km
速度 7.62 km/s
星下点 -40.31°S, 83.72°E
发射日期 Jul 16, 2023
运行时间 2.8 years
类型 internet

技术详情

分类 Payload
质量 305.00 kg
干质量 290.00 kg
总质量 305.00 kg
长度 0.20 m
直径 2.80 m
跨度 9.00 m
形状 Box + pan
制造商 SPXS
平台类型 Starlink
阶段状态 In Orbit
所有者/国家 SPXS/US

Most Searched